Home > Time Zones > World Clock > Weather > Peru > Lima > Past weeks

Flag for Peru Weather past 2 weeks in Lima, Lima, Peru

Now
61 °F

Fog.


Feels Like: 61 °F
Forecast: N/A
Wind: 3 mph from Northwest

Location: Lima-Callao / Aerop. Internacional Jorgechavez

Current Time: Jul 31, 2014 at 6:50:06 PM

Latest Report: Jul 31, 2014 at 6:00 PM


Visibility: 3 mi

Pressure: 29.92 "Hg

Humidity: 88%

Dew point: 57 °F

Location of LimaLocation

Historic Weather in Lima — Graph

°F

Lima temperature yesterday

Maximum temperature yesterday: 66 °F (at 3:00 PM)
Minimum temperature yesterday: 59 °F (at 12:00 AM)
Average temperature yesterday: 61 °F

Past Weeks' High & Low Weather Summary

 TemperatureHumidityPressure
High68 °F (Jul 21, 2:00 PM)100% (Jul 28, 6:00 AM)30.07 "Hg (Jul 28, 6:00 AM)
Low57 °F (Jul 28, 6:00 AM)69% (Jul 21, 2:00 PM)29.86 "Hg (Jul 21, 5:00 PM)
Average61 °F86%29.97 "Hg
* Reported Jul 16 5:00 PM — Jul 31 5:00 PM, Lima, Weather by CustomWeather, © 2014

Note: Actual official high and low records may vary slightly from our data, if they occured in-between our weather recording intervals... More about our weather records

Advertising

Lima weather history for previous 24 hours

 ConditionsComfort  
Time TempWeatherWind HumidityBarometerVisibility
5:00 PM
Jul 31
61 °FLow clouds.5 mph88%29.92 "Hg4 mi
4:00 PM61 °FMore clouds than sun.6 mph88%29.92 "HgN/A
3:00 PM61 °FLow clouds.7 mph88%29.92 "Hg5 mi
2:00 PM61 °FMore clouds than sun.9 mph88%29.92 "Hg5 mi
1:00 PM63 °FOvercast.8 mph83%29.95 "Hg5 mi
12:00 PM63 °FOvercast.10 mph83%29.95 "Hg4 mi
11:00 AM61 °FOvercast.7 mph83%29.95 "Hg4 mi
10:00 AM61 °FOvercast.5 mph83%29.95 "Hg5 mi
9:00 AM61 °FOvercast.6 mph83%29.95 "Hg5 mi
8:00 AM61 °FOvercast.2 mph83%29.92 "Hg5 mi
7:00 AM59 °FOvercast.6 mph88%29.92 "Hg5 mi
6:00 AM59 °FOvercast.7 mph88%29.92 "Hg6 mi
5:00 AM59 °FOvercast.7 mph88%29.92 "Hg6 mi
4:00 AM59 °FOvercast.6 mph88%29.92 "Hg6 mi
3:00 AM59 °FDrizzle. Fog.6 mph94%29.95 "Hg3 mi
2:00 AM59 °FLow clouds.8 mph94%29.95 "Hg3 mi
1:00 AM61 °FFog.8 mph88%29.98 "Hg3 mi
12:00 AM61 °FFog.6 mph88%29.98 "Hg3 mi
11:00 PM
Jul 30
61 °FOvercast.6 mph88%29.98 "Hg5 mi
10:00 PM61 °FOvercast.8 mph88%29.98 "Hg4 mi
9:00 PM61 °FOvercast.9 mph83%29.98 "Hg5 mi
8:00 PM61 °FOvercast.9 mph83%29.95 "Hg4 mi
7:00 PM61 °FOvercast.12 mph83%29.95 "Hg4 mi
6:00 PM63 °FOvercast.9 mph77%29.92 "Hg4 mi
Weather by CustomWeather, © 2014

See weather overviewHow to use our weather pages